Location: Wonder Lake State Park
(41.4960°N, 73.6562°W)
Time: 23:54:46
(UTC-04:00)

Daily predictions for brighter satellites

Satellite Brightness Start Highest point End
(mag) Time Altitude Azimuth Time Altitude Azimuth Time Altitude Azimuth
MOS 1 4.5 18:29:13 10° SE 18:34:41 52° ENE 18:40:10 10° N
ERS-2 2.2 18:34:56 10° SSE 18:38:38 86° WSW 18:42:21 10° NNW
SL-16 R/B 2.2 18:34:57 10° NNW 18:40:41 87° ENE 18:46:21 10° SSE
CZ-4 R/B 1.7 18:37:04 10° S 18:41:18 77° WSW 18:45:29 10° NNW
Cosmos 1727 Rocket 4.3 18:35:20 10° N 18:41:28 47° ENE 18:47:32 10° SSE
Meteor 1-28 Rocket 3.2 18:38:48 10° NNE 18:42:37 89° WNW 18:46:23 10° SSW
SL-8 R/B 4.2 18:38:58 10° SSW 18:43:31 44° SE 18:48:07 10° ENE
Cosmos 1400 Rocket 3.2 18:39:52 10° N 18:43:44 41° ENE 18:47:30 10° SSE
Cosmos 1242 Rocket 4.4 18:45:48 10° SW 18:49:09 36° WNW 18:52:34 10° N
YAOGAN 1 2.6 18:45:03 10° SSE 18:49:23 90° ENE 18:53:44 10° NNW
Ariane Rocket 4.4 18:44:59 10° S 18:49:49 44° W 18:54:43 10° NNW
Cosmos 1908 4.4 18:47:46 10° SE 18:50:52 23° E 18:53:58 10° NE
Meteor 2-14 Rocket 4.5 18:47:38 10° S 18:53:45 89° W 18:59:51 10° N
SPOT 3 Rocket 3.6 18:50:26 10° SSE 18:55:32 63° ENE 19:00:42 10° N
Meteor 2-16 Rocket 4.4 18:50:42 10° S 18:56:47 83° E 19:02:56 10° N
GP-B 3.0 18:53:59 10° N 18:58:27 74° E 19:02:52 10° S
CZ-4C R/B 3.5 18:55:53 10° SE 18:58:56 16° ESE 19:01:01 13° E
H-2A R/B 4.1 18:56:40 10° ESE 18:59:31 20° ENE 19:02:24 10° NNE
Cosmos 2056 Rocket 3.7 18:55:09 10° NNW 19:00:30 78° WSW 19:05:43 10° SSE
SL-08 R/B 4.4 18:54:49 10° S 19:00:59 79° E 19:07:07 10° N
Cosmos-2242 4.1 18:57:43 10° SSW 19:01:51 49° W 19:05:59 10° N
METEOR-M 4.1 18:57:39 10° SSE 19:02:59 84° ENE 19:08:22 10° NNW
Tiangong 1 3.4 19:04:46 10° WSW 19:06:38 17° SSW 19:08:29 10° SSE
ALOS 2.3 19:05:02 10° SSE 19:09:36 57° ENE 19:14:11 10° N
Cosmos 2098 Rocket 4.2 19:06:40 10° SE 19:10:11 25° E 19:14:25 10° NNE
USA 267 4.0 19:05:42 12° ENE 19:10:59 32° SE 19:16:40 10° S
SKYMED 2 3.7 19:08:29 10° N 19:12:51 80° WNW 19:17:10 10° SSW
Cosmos 2151 2.9 19:09:37 10° N 19:13:56 77° E 19:18:10 10° SSE
NOAA 12 4.0 19:10:42 10° SSE 19:15:58 74° ENE 19:21:17 10° N
GRACE-2 3.5 19:14:31 10° S 19:17:03 67° E 19:19:38 10° N
Cosmos 1452 Rocket 3.5 19:13:07 10° NNW 19:18:21 62° ENE 19:23:32 10° SSE
Cosmos 1743 Rocket 3.8 19:14:25 10° NNW 19:18:47 72° W 19:23:10 10° S
SL-24 R/B - RUBIN 2 3.7 19:14:24 10° NNW 19:19:16 59° NE 19:22:54 15° SE
GRACE-1 3.5 19:16:44 10° S 19:19:18 78° E 19:21:54 10° N
COSMOS 2428 3.3 19:14:38 10° N 19:19:48 35° ENE 19:23:13 19° ESE
Cosmos 2333 Rocket 3.5 19:18:43 10° N 19:23:02 21° NE 19:24:25 20° ENE
BREEZE-M DEB (TANK) 2.4 19:21:04 10° WSW 19:23:12 42° NNW 19:23:53 28° NNE
Cosmos 2360 Rocket 2.1 19:17:56 10° NNW 19:23:38 79° ENE 19:29:17 10° SSE
Delta 2 Rocket 4.3 19:21:28 10° SW 19:24:36 27° S 19:25:53 21° SE
Abrixas rocket 3.6 19:21:59 10° WNW 19:24:57 30° NNW 19:26:39 19° NE
Cosmos 1626 3.0 19:22:14 10° NNW 19:25:54 52° W 19:29:31 10° S
Cosmos 1315 Rocket 2.8 19:21:51 10° N 19:25:54 64° E 19:29:57 10° SSE
Cosmos 1833 4.2 19:20:26 10° SSW 19:26:08 90° W 19:31:50 10° NNE
Cosmos 1842 Rocket 3.9 19:21:57 10° SSW 19:26:23 68° W 19:30:51 10° N
SAR-Lupe-3 4.5 19:23:27 10° NNE 19:27:01 61° ESE 19:30:33 10° S
Cosmos 2322 Rocket 3.8 19:25:06 10° NW 19:30:12 37° WSW 19:35:17 10° S
Cosmos 2219 3.8 19:25:26 10° SSE 19:30:32 34° ESE 19:34:37 15° NE
FengYun 1-2 T 4.3 19:28:07 10° SSE 19:33:29 56° ENE 19:38:51 10° N
Cosmos 2221 2.4 19:29:20 10° S 19:33:34 62° E 19:37:52 10° NNE
DELTA 2 R/B (1) 3.7 19:28:00 10° W 19:33:34 70° S 19:36:42 27° ESE
Resurs 01 Rocket 3.2 19:36:11 19° NE 19:36:11 19° NE 19:38:16 10° NNE
Meteor 2-1 Rocket 4.4 19:29:24 10° SSW 19:35:10 80° W 19:41:06 10° N
Cosmos 1500 Rocket 4.3 19:36:32 10° NNW 19:40:47 53° W 19:44:59 10° S
Aureole 2 Rocket 4.4 19:39:03 10° N 19:40:49 20° NNE 19:40:49 20° NNE
Cosmos 2058 3.9 19:39:00 10° NNW 19:43:02 48° W 19:47:02 10° SSW
RESURS DK-1 2.5 19:39:18 10° NNW 19:43:26 74° WSW 19:47:00 13° SSE
Cosmos 921 Rocket 3.0 19:39:11 10° NNW 19:43:41 88° WSW 19:48:03 10° SSE
Cosmos 1535 Rocket 4.5 19:39:12 10° SSE 19:45:08 54° E 19:51:05 10° NNE
USA 234 4.3 19:43:39 21° ENE 19:46:39 30° NNE 19:52:09 10° NW
Cosmos 44 3.2 19:42:30 10° S 19:46:40 44° ESE 19:46:58 44° ESE
Lacrosse 5 rocket 4.0 19:48:27 10° NW 19:50:21 12° NNW 19:52:13 10° N
SJ-6B 2.6 19:50:20 57° ESE 19:50:41 61° ENE 19:54:23 10° N
Cosmos 2322 3.8 19:45:45 10° NNW 19:51:30 78° WSW 19:57:11 10° SSE
FENGYUN 3A 4.3 19:49:57 10° S 19:55:14 56° W 20:00:34 10° NNW
Iridium 4 Rocket 3.8 19:52:26 10° S 19:57:51 82° W 20:03:43 10° N
Cosmos 1048 Rocket 3.8 19:53:41 10° SSW 19:58:48 76° ESE 20:03:56 10° NNE
Atlas Centaur 2 3.6 19:55:11 10° WSW 19:59:22 25° S 20:01:19 21° SSE
Thor Agena Rocket 3.6 19:55:02 10° N 20:00:09 75° WNW 20:05:11 10° SSW
FREGAT/IRIS 3.3 20:00:46 53° WSW 20:00:52 53° W 20:03:50 10° NNW
Cosmos 44 Rocket 3.1 19:56:48 10° SSW 20:01:27 63° ESE 20:01:58 58° E
NOSS 0 Rocket 4.4 19:58:45 10° NNW 20:04:32 39° ENE 20:04:53 39° ENE
Cosmos 1420 Rocket 4.2 19:59:27 10° NNW 20:04:46 71° WSW 20:09:34 12° S
Gbstr 26 Del rocket 4.0 20:00:02 10° NW 20:05:07 51° NNE 20:06:21 44° ENE
Envisat 3.7 20:09:18 37° NE 20:09:18 37° NE 20:12:59 10° N
Cosmos 2219 Rocket 2.2 20:08:09 10° NNW 20:13:39 56° ENE 20:13:48 56° ENE
Sich 1 3.5 20:10:07 10° N 20:13:23 48° NNE 20:13:23 48° NNE
Cosmos 1821 Rocket 4.1 20:10:33 10° SSW 20:16:40 76° W 20:22:57 10° N
Centaur D AC-28 4.4 20:12:20 10° S 20:14:56 19° SSE 20:14:56 19° SSE
Cosmos 1805 Rocket 3.9 20:14:45 10° NNW 20:19:05 65° W 20:20:42 37° SSW
Cosmos 1934 Rocket 4.0 20:17:49 10° S 20:24:11 88° W 20:30:36 10° N
SL-8 R/B 4.1 20:21:18 10° W 20:26:02 55° NNW 20:26:18 54° N
Cosmos 2333 4.3 20:21:20 10° NNW 20:27:03 76° WSW 20:28:44 47° S
Cosmos 1666 Rocket 4.4 20:23:19 10° N 20:26:17 43° NNW 20:26:17 43° NNW
Cosmos 1726 4.3 20:27:55 10° SSW 20:29:16 20° SW 20:29:16 20° SW
Cosmos 1633 Rocket 4.5 20:32:32 10° N 20:34:50 30° NNW 20:34:50 30° NNW
Cosmos 2237 Rocket 3.1 20:37:44 10° NNW 20:41:26 37° N 20:41:26 37° N
In-Cosmos 22 Rocket 4.2 20:38:28 10° N 20:43:57 80° NW 20:43:57 80° NW
Cosmos 2123 Rocket 4.1 20:38:53 10° NNW 20:45:06 71° W 20:47:28 40° SSW
CZ-4C R/B 2.3 20:41:20 10° SW 20:46:18 69° WNW 20:46:18 69° WNW
Cosmos 1605 Rocket 3.9 20:44:39 10° S 20:50:47 80° W 20:56:55 10° N
SL-16 R/B 4.1 20:47:16 10° N 20:49:03 18° N 20:49:03 18° N
USA 267 3.3 20:53:05 59° NNE 20:54:17 73° NW 21:00:47 10° WSW
COSMOS 2428 4.0 20:58:55 10° NW 21:04:01 35° WSW 21:05:17 31° SW
BREEZE-M DEB (TANK) 4.2 20:58:35 10° WNW 21:03:07 35° NW 21:03:07 35° NW
Cosmos 2333 Rocket 3.0 21:02:06 10° NNW 21:06:27 50° NW 21:06:27 50° NW
Resurs 01 Rocket 4.0 21:13:47 20° NW 21:13:47 20° NW 21:15:18 10° NNW
USA 234 4.0 21:31:01 46° NNW 21:31:01 46° NNW 21:35:29 10° NW
